This is the latest recevied weather packets stored in our database for station/object OK1HOL-13. If no packets are shown the sender has not sent any weather packets the latest 10 day(s).
| Time | Temp. | Humidity | Pressure | Rain* | Wind** | Luminosity | Snow |
|---|---|---|---|---|---|---|---|
| 1777656687 | 21.11° C | 28% | 1025 hPa | - | - | 10 W/m² | - |
| 1777656087 | 21.67° C | 28% | 1024.9 hPa | - | - | 12 W/m² | - |
| 1777655487 | 21.67° C | 28% | 1024.9 hPa | - | - | 14 W/m² | - |
| 1777654887 | 21.67° C | 28% | 1025 hPa | - | - | 15 W/m² | - |
| 1777654287 | 21.67° C | 27% | 1025 hPa | - | - | 17 W/m² | - |
| 1777653087 | 22.78° C | 26% | 1025.2 hPa | - | - | 20 W/m² | - |
| 1777652487 | 23.33° C | 25% | 1025.2 hPa | - | - | 45 W/m² | - |
| 1777651887 | 23.33° C | 25% | 1025.3 hPa | - | - | 78 W/m² | - |
| 1777651287 | 23.89° C | 24% | 1025.4 hPa | - | - | 56 W/m² | - |
| 1777650687 | 23.33° C | 25% | 1025.4 hPa | - | - | 115 W/m² | - |
| 1777650088 | 23.89° C | 24% | 1025.5 hPa | - | - | 149 W/m² | - |
| 1777649487 | 25° C | 23% | 1025.6 hPa | - | - | 174 W/m² | - |
| 1777648887 | 24.44° C | 23% | 1025.7 hPa | - | - | 178 W/m² | - |
| 1777648290 | 25° C | 23% | 1025.8 hPa | - | - | 0 W/m² | - |
| 1777647686 | 23.33° C | 24% | 1025.9 hPa | - | - | 234 W/m² | - |
| 1777647086 | 22.22° C | 25% | 1026 hPa | - | - | 244 W/m² | - |
| 1777646486 | 23.89° C | 23% | 1026.1 hPa | - | - | 284 W/m² | - |
| 1777645886 | 24.44° C | 23% | 1026.2 hPa | - | - | 293 W/m² | - |
| 1777645286 | 23.89° C | 24% | 1026.3 hPa | - | - | 321 W/m² | - |
| 1777644686 | 24.44° C | 23% | 1026.3 hPa | - | - | 331 W/m² | - |
| 1777644086 | 24.44° C | 23% | 1026.4 hPa | - | - | 382 W/m² | - |
| 1777643486 | 23.89° C | 23% | 1026.5 hPa | - | - | 408 W/m² | - |
| 1777642886 | 25° C | 22% | 1026.6 hPa | - | - | 416 W/m² | - |
| 1777642286 | 23.33° C | 23% | 1026.7 hPa | - | - | 430 W/m² | - |
| 1777641686 | 22.78° C | 24% | 1026.7 hPa | - | - | 431 W/m² | - |
* Rain since midnight (hover to see other rain measurements)
** Current wind speed in m/s (hover to see current wind gust speed)